Regional Weather Roundup
Issued by NWS Newport/Morehead, NC

Current Version | Previous Version | Graphics & Text | Print | Product List | Glossary On
Versions: 1 2 3 4 5 6 7 8 9 10 11 12 13 14 15 16 17 18 19 20 21 22 23 24 25 26 27 28 29 30 31 32 33 34 35 36 37 38 39 40 41 42 43 44 45 46 47 48 49 50
000 ASUS42 KMHX 222213 RWRMHX WEATHER ROUNDUP FOR EASTERN NORTH CAROLINA NATIONAL WEATHER SERVICE NEWPORT/MOREHEAD CITY NC 500 PM EST WED FEB 22 2017 NOTE: "FAIR" INDICATES FEW OR NO CLOUDS BELOW 12,000 FEET WITH NO SIGNIFICANT WEATHER AND/OR OBSTRUCTIONS TO VISIBILITY NCZ015>017-031-032-045>047-102-103-222300- NORTH COAST CITY SKY/WX TMP DP RH WIND PRES REMARKS EDENTON CLOUDY 66 51 58 E6 29.96S ELIZABETH CITY CLOUDY 62 50 64 SE8 29.96S KITTY HAWK NOT AVBL MANTEO CLOUDY 63 50 63 S6 29.97S $$ NCZ045>047-081-094-103-104-222300- CENTRAL COAST CITY SKY/WX TMP DP RH WIND PRES REMARKS FRISCO CLOUDY 69 54 58 S7 29.97R $$ NCZ095-097-098-100-101-222300- SOUTHERN COAST CITY SKY/WX TMP DP RH WIND PRES REMARKS BEAUFORT MOSUNNY 67 53 61 SW5 29.95S CEDAR ISLAND NOT AVBL JACKSONVILLE MOSUNNY 67 54 63 S9 29.94S PINEY ISLAND CLOUDY N/A N/A N/A S6 29.95S WILMINGTON CLOUDY 68 54 60 SE9 29.93S $$ NCZ011>013-027>030-043-044-078>080-089-090>093-098-222300- COASTAL PLAIN CITY SKY/WX TMP DP RH WIND PRES REMARKS AHOSKIE NOT AVBL CLINTON MOSUNNY 71 54 54 SE5 29.92S ELIZABETHTOWN PTSUNNY 71 51 49 SE9 29.91S GOLDSBORO PTSUNNY 69 52 54 E3 29.91S GREENVILLE CLOUDY 70 50 49 S5 29.95S HAVELOCK NOT AVBL KENANSVILLE NOT AVBL KINSTON CLOUDY 70 52 52 S9 29.94S NEW BERN MOSUNNY 68 52 56 S10 29.95S RICHLANDS PTSUNNY 68 55 63 SE10 29.94S ROCKY MOUNT CLOUDY 70 51 51 CALM 29.93S WASHINGTON CLOUDY 69 52 54 SE5 29.94S WHITEVILLE PTSUNNY 70 52 52 SE7 29.91S $$ AMZ130-135-150-152-154-156-158-170-250-252-270-ANZ085-086-088-633-658-670-222300- MARINE OBSERVATIONS STATION/POSITION TIME TEMP WIND PRES WAVE SWELL AIR SEA DIR/SP/G HT/PER HT/PER (UTC) (F) (DEG/KT/KT) (MB) (FT/S) (FT/S) CHESAPEAKE LIGHT NOT AVBL 64 E VA BEACH 2150 59 55 160/ 4/ 4 1014.9 3/ 9 3/ 9 DUCK 2124 53 48 140/ 9/ 9 1014.1 2 E DUCK 2200 51 N/A 3/ 9 OREGON INLET 2148 90/ 4/ 6 N/A 13E OREGON INLT NOT AVBL HATTERAS CG 2148 66 59 210/ 3/ 5 1014.5 DIAMOND BUOY 2150 68 75 140/ 12/ 14 1014.6 4/ 9 3/ 9 CAPE LOOKOUT 2200 65 150/ 5/ 5 1013.9 BEAUFORT LAB 2148 66 54 210/ 2/ 3 1013.4 30 SE NEW RVR IN 2108 68 150/ 10/ 14 1013.9 30 SE NEW RVR IN 2143 69 N/A 4/10 2/11 27 SE WRIGHTSVLE 2108 67 65 140/ 10/ 14 1013.0 5 SE WRIGHTSVLE 2108 62 58 110/ 4/ 8 1013.4 225 S CAPE HAT 2150 66 70 100/ 14/ 17 1014.7 5/11 5/11 41 SE CHARLESTON 2150 69 70 120/ 19/ 25 1010.5 6/ 6 2/14 $$

USA.gov is the U.S. government's official web portal to all federal, state and local government web resources and services.